Location: *
(38.9800°N, 16.0500°E)
Time: 18:39:14
(UTC+00:00)

Resurs 1-4 Rocket - Pass Details

Date: 07 April 2020
Orbit: 799 x 814 km, 98.6° (Epoch: 06 June)

Event Time Altitude Azimuth Distance (km) Brightness Sun altitude
Rises 01:39:06 0° 359° (N) 3,328 5.8 -30.8°
Reaches altitude 10° 01:41:50 10° 346° (NNW) 2,390 4.8 -30.4°
Enters shadow 01:43:49 18° 328° (NNW) 1,866 4.0 -30.1°
